{"data":{"norad_id":57627,"intl_designator":"2023-121B","name":"HEAD-3B","alt_names":[],"object_type":"PAYLOAD","status":"ACTIVE","operator":null,"country":"PRC","launch_date":"2023-08-14","launch_site_code":"XICLF","launch_vehicle":null,"mission":null,"orbit_class":"UNKNOWN","rcs_meters":null,"size_class":null,"mass_kg":null,"dimensions":null,"purposes":[],"wikipedia_slug":null,"has_3d_model":false,"image_url":null,"decayed_at":null,"tle_current":{"epoch":"2026-09-21T22:31:00.691680Z","epoch_age_seconds":86558,"freshness":"FRESH","line1":"1 57627U 23121B   26264.93820245  .00000403  00000+0  11217-3 0  9990","line2":"2 57627  45.0020 188.4197 0005586  42.3598 317.7690 14.61704355165824","mean_motion":14.61704355,"eccentricity":0.0005586,"inclination_deg":45.002,"raan_deg":188.4197,"arg_perigee_deg":42.3598,"mean_anomaly_deg":317.769,"bstar":0.00011217,"rev_number":16582,"period_min":98.51513372552,"perigee_km":683.72916599722,"apogee_km":691.62309242517,"semimajor_km":7065.8131292112,"source":"CELESTRAK","updated_at":"2026-09-22T09:00:26.241810Z"}}}